Regional Weather Roundup
Issued by NWS

Home | Current Version | Previous Version | Text Only | Print | Product List | Glossary Off
Versions: 1 2 3 4 5 6 7 8 9 10 11 12 13 14 15 16 17 18 19 20 21 22 23 24 25 26 27 28 29 30 31 32 33 34 35 36 37 38 39 40 41 42 43 44 45 46 47 48 49 50

000
ASUS45 KABQ 220710
RWRNM
WEATHER ROUNDUP FOR NEW MEXICO
NATIONAL WEATHER SERVICE ALBUQUERQUE NM
1200 AM MST MON DEC 22 2014

NOTE: "FAIR" MEANS FEW OR NO CLOUDS BELOW 12,000 FEET AGL WITH NO
       SIGNIFICANT WEATHER OR OBSTRUCTIONS TO VISION.

      THIS PRODUCT IS RELEASED AS TWO VERSIONS.  ONE VERSION NEAR
      THE TOP OF THE HOUR CONTAINING PRELIMINARY DATA FROM ALBUQUERQUE
      AND OTHER STATIONS.  A FINAL VERSION WITH ADDITIONAL DATA IS
      ISSUED ABOUT 10 MINUTES AFTER THE HOUR.

NMZ501-503-504-510>518-220800-
NORTHWEST PLATEAU/NORTHCENTRAL MOUNTAINS

CITY           SKY/WX    TMP DP  RH WIND       PRES   REMARKS
FARMINGTON     CLEAR     31  28  89 N3        29.95R
LOS ALAMOS     PTCLDY    41  28  60 W15G23    29.86F
SANTA FE       PTCLDY    42  29  59 W22G30    29.83F
TAOS           CLOUDY    34  27  75 CALM      29.84F
ANGEL FIRE     PTSUNNY   32  27  83 W21G35    29.80F WCI  20

$$
NMZ402-403-502-505>509-220800-
WESTCENTRAL MOUNTAINS/SOUTHWEST MOUNTAINS

CITY           SKY/WX    TMP DP  RH WIND       PRES   REMARKS
GALLUP         CLOUDY    36  30  79 SW6       30.04F WCI  31
GRANTS         MOCLDY    35  30  83 N10       30.00F WCI  27
SILVER CITY    MOCLDY    39  28  65 NW14      30.02F WCI  31

$$
NMZ407-409-411-412-220800-
SOUTHERN DESERTS

CITY           SKY/WX    TMP DP  RH WIND       PRES   REMARKS
LORDSBURG      FAIR      37  32  81 N5        30.03S WCI  34
DEMING         CLOUDY    45  30  55 SW9       29.98F
LAS CRUCES     CLOUDY    47  30  51 W13       29.95R
HOLLOMAN AFB   PTCLDY    35  29  78 N9        29.88F WCI  28
ALAMOGORDO     PTCLDY    46  28  49 N8        29.90F
T OR C         PTCLDY    51  30  44 NW9       29.94R

$$
NMZ519>523-220800-
CENTRAL VALLEYS/CENTRAL HIGHLANDS

CITY           SKY/WX    TMP DP  RH WIND       PRES   REMARKS
ALBUQUERQUE    PTCLDY    34  28  79 E10       29.94R WCI  26
DOUBLE EAGLE   PTCLDY    32  27  81 NW6       29.94S WCI  26
MORIARTY ARPT  FAIR      42  28  58 CALM      29.87F
CLINES CORNERS PTCLDY    37  27  67 W20       29.85R WCI  27
BELEN          FAIR      45  32  59 W12G17    29.93S
SOCORRO        FAIR      40  29  63 CALM      29.93F

$$
NMZ524>526-539-540-220800-
SOUTHCENTRAL MOUNTAINS

CITY           SKY/WX    TMP DP  RH WIND       PRES   REMARKS
RUIDOSO        PTCLDY    46  27  46 NW26G48   29.87F

$$
NMZ527>531-220800-
NORTHEAST HIGHLANDS/NORTHEAST PLAINS

CITY           SKY/WX    TMP DP  RH WIND       PRES   REMARKS
LAS VEGAS      PTCLDY    38  26  62 NW16      29.79F WCI  29
RATON          PTCLDY    47  24  40 NW17G29   29.65F
CLAYTON        PTCLDY    42  27  55 W8        29.62F

$$
NMZ532>537-220800-
EASTCENTRAL PLAINS

CITY           SKY/WX    TMP DP  RH WIND       PRES   REMARKS
TUCUMCARI      PTCLDY    44  27  51 W10       29.65F
CANNON AFB     PTCLDY    45  28  52 W13       29.69F
CLOVIS AIRPORT PTCLDY    48  28  46 W21       29.67S

$$
NMZ028-029-538-220800-
SOUTHEAST PLAINS

CITY           SKY/WX    TMP DP  RH WIND       PRES   REMARKS
ROSWELL        CLOUDY    46  27  47 SE8       29.75F
ARTESIA        CLOUDY    54  28  37 W17G26    29.76F
CARLSBAD       CLOUDY    61  27  27 W23G31    29.74F
HOBBS          MOCLDY    54  27  35 W21       29.73F


$$


USA.gov is the U.S. government's official web portal to all federal, state and local government web resources and services.